Time,TemperatureF,DewpointF,PressureIn,WindDirection,WindDirectionDegrees,WindSpeedMPH,WindSpeedGustMPH,Humidity,HourlyPrecipIn,Conditions,Clouds,dailyrainin,SoftwareType,DateUTC
2013-04-18 15:50:00,59.9,44.6,29.88,NNW,340,11.0,20.0,57,0.00,,,0.09,Wunderground v.1.15,2013-04-18 20:50:00,
2013-04-18 15:52:00,60.2,44.4,29.88,North,7,11.0,20.0,56,0.00,,,0.09,Wunderground v.1.15,2013-04-18 20:52:00,
2013-04-18 15:54:00,60.1,43.9,29.89,North,360,11.0,22.0,55,0.00,,,0.09,Wunderground v.1.15,2013-04-18 20:54:00,
2013-04-18 15:56:00,60.0,44.3,29.89,NNW,345,11.0,22.0,56,0.00,,,0.09,Wunderground v.1.15,2013-04-18 20:56:00,
2013-04-18 15:58:00,60.0,43.8,29.88,NNW,330,11.0,22.0,55,0.00,,,0.09,Wunderground v.1.15,2013-04-18 20:58:00,
2013-04-18 16:04:00,60.3,43.1,29.88,NNE,15,12.0,20.0,53,0.00,,,0.09,Wunderground v.1.15,2013-04-18 21:04:00,
2013-04-18 16:10:00,60.2,43.0,29.88,North,350,12.0,12.0,53,0.00,,,0.09,Wunderground v.1.15,2013-04-18 21:10:00,
2013-04-18 16:16:00,60.4,43.7,29.88,North,356,12.0,20.0,54,0.00,,,0.09,Wunderground v.1.15,2013-04-18 21:16:00,
2013-04-18 16:22:00,60.5,43.3,29.88,North,351,13.0,20.0,53,0.00,,,0.09,Wunderground v.1.15,2013-04-18 21:22:00,
2013-04-18 16:28:00,60.6,43.4,29.89,NNE,13,13.0,20.0,53,0.00,,,0.09,Wunderground v.1.15,2013-04-18 21:28:00,
2013-04-18 16:34:00,60.7,43.0,29.89,NNW,330,12.0,20.0,52,0.00,,,0.09,Wunderground v.1.15,2013-04-18 21:34:00,
2013-04-18 16:40:00,60.6,42.9,29.89,NW,324,12.0,12.0,52,0.00,,,0.09,Wunderground v.1.15,2013-04-18 21:40:00,
2013-04-18 16:46:00,60.7,43.0,29.89,WNW,296,12.0,20.0,52,0.00,,,0.09,Wunderground v.1.15,2013-04-18 21:46:00,
2013-04-18 16:52:00,60.8,43.1,29.89,North,353,13.0,20.0,52,0.00,,,0.09,Wunderground v.1.15,2013-04-18 21:52:00,
2013-04-18 16:58:00,60.1,42.4,29.89,NNW,341,12.0,20.0,52,0.00,,,0.09,Wunderground v.1.15,2013-04-18 21:58:00,
2013-04-18 17:04:00,60.6,42.4,29.89,North,358,11.0,20.0,51,0.00,,,0.09,Wunderground v.1.15,2013-04-18 22:04:00,
2013-04-18 17:10:00,60.9,42.6,29.90,NW,321,10.0,10.0,51,0.00,,,0.09,Wunderground v.1.15,2013-04-18 22:10:00,
2013-04-18 17:16:00,61.1,42.3,29.90,NNW,328,10.0,20.0,50,0.00,,,0.09,Wunderground v.1.15,2013-04-18 22:16:00,
2013-04-18 17:22:00,61.3,42.5,29.90,NNW,341,10.0,20.0,50,0.00,,,0.09,Wunderground v.1.15,2013-04-18 22:22:00,
2013-04-18 17:28:00,61.4,42.1,29.90,North,349,10.0,20.0,49,0.00,,,0.09,Wunderground v.1.15,2013-04-18 22:28:00,
2013-04-18 17:34:00,61.0,40.6,29.90,NW,308,12.0,20.0,47,0.00,,,0.09,Wunderground v.1.15,2013-04-18 22:34:00,
2013-04-18 17:40:00,60.9,41.6,29.91,North,3,11.0,11.0,49,0.00,,,0.09,Wunderground v.1.15,2013-04-18 22:40:00,
2013-04-18 17:46:00,61.1,42.3,29.90,NNW,338,8.0,20.0,50,0.00,,,0.09,Wunderground v.1.15,2013-04-18 22:46:00,
2013-04-18 17:52:00,61.0,41.7,29.91,NNW,334,9.0,18.0,49,0.00,,,0.09,Wunderground v.1.15,2013-04-18 22:52:00,
2013-04-18 17:58:00,60.6,41.8,29.91,SW,236,11.0,20.0,50,0.00,,,0.09,Wunderground v.1.15,2013-04-18 22:58:00,
2013-04-18 18:04:00,61.1,41.8,29.91,NNE,29,9.0,20.0,49,0.00,,,0.09,Wunderground v.1.15,2013-04-18 23:04:00,
2013-04-18 18:10:00,61.1,41.8,29.92,WNW,293,8.0,20.0,49,0.00,,,0.09,Wunderground v.1.15,2013-04-18 23:10:00,
2013-04-18 18:16:00,60.8,41.5,29.92,NNW,336,10.0,20.0,49,0.00,,,0.09,Wunderground v.1.15,2013-04-18 23:16:00,
2013-04-18 18:22:00,60.7,41.9,29.92,NNW,333,11.0,20.0,50,0.00,,,0.09,Wunderground v.1.15,2013-04-18 23:22:00,
2013-04-18 18:28:00,60.8,41.0,29.92,North,352,11.0,20.0,48,0.00,,,0.09,Wunderground v.1.15,2013-04-18 23:28:00,
2013-04-18 18:34:00,60.6,40.8,29.92,NNE,15,12.0,20.0,48,0.00,,,0.09,Wunderground v.1.15,2013-04-18 23:34:00,
2013-04-18 18:40:00,60.3,41.0,29.93,NNE,18,11.0,11.0,49,0.00,,,0.09,Wunderground v.1.15,2013-04-18 23:40:00,
2013-04-18 18:46:00,59.7,41.5,29.93,North,352,10.0,20.0,51,0.00,,,0.09,Wunderground v.1.15,2013-04-18 23:46:00,
2013-04-18 18:52:00,59.4,41.3,29.94,NNW,334,9.0,20.0,51,0.00,,,0.09,Wunderground v.1.15,2013-04-18 23:52:00,
2013-04-18 18:58:00,59.3,41.2,29.94,NW,323,10.0,20.0,51,0.00,,,0.09,Wunderground v.1.15,2013-04-18 23:58:00,
2013-04-18 19:04:00,59.0,40.4,29.94,NNW,330,11.0,17.0,50,0.00,,,0.09,Wunderground v.1.15,2013-04-19 00:04:00,
2013-04-18 19:10:00,58.5,40.4,29.94,NW,322,12.0,12.0,51,0.00,,,0.09,Wunderground v.1.15,2013-04-19 00:10:00,
2013-04-18 19:16:00,58.4,40.3,29.95,NNW,337,11.0,20.0,51,0.00,,,0.09,Wunderground v.1.15,2013-04-19 00:16:00,
2013-04-18 19:22:00,58.2,40.6,29.95,NW,313,10.0,20.0,52,0.00,,,0.09,Wunderground v.1.15,2013-04-19 00:22:00,
2013-04-18 19:28:00,57.9,40.4,29.96,North,11,10.0,20.0,52,0.00,,,0.09,Wunderground v.1.15,2013-04-19 00:28:00,
2013-04-18 19:34:00,57.5,40.5,29.97,NNW,333,10.0,20.0,53,0.00,,,0.09,Wunderground v.1.15,2013-04-19 00:34:00,
2013-04-18 19:40:00,57.2,39.7,29.97,NNW,333,9.0,9.0,52,0.00,,,0.09,Wunderground v.1.15,2013-04-19 00:40:00,
2013-04-18 19:46:00,57.0,39.5,29.97,NNW,340,9.0,20.0,52,0.00,,,0.09,Wunderground v.1.15,2013-04-19 00:46:00,
2013-04-18 19:52:00,56.7,39.3,29.97,NNW,328,9.0,20.0,52,0.00,,,0.09,Wunderground v.1.15,2013-04-19 00:52:00,
2013-04-18 19:58:00,56.3,39.4,29.97,NNE,19,9.0,20.0,53,0.00,,,0.09,Wunderground v.1.15,2013-04-19 00:58:00,
2013-04-18 20:04:00,55.7,39.3,29.98,NNE,15,8.0,20.0,54,0.00,,,0.09,Wunderground v.1.15,2013-04-19 01:04:00,
2013-04-18 20:10:00,55.4,39.5,29.98,North,9,8.0,20.0,55,0.00,,,0.09,Wunderground v.1.15,2013-04-19 01:10:00,
2013-04-18 20:16:00,55.1,39.2,29.99,NNE,18,9.0,20.0,55,0.00,,,0.09,Wunderground v.1.15,2013-04-19 01:16:00,
2013-04-18 20:22:00,54.9,39.5,29.99,NNE,17,9.0,20.0,56,0.00,,,0.09,Wunderground v.1.15,2013-04-19 01:22:00,
2013-04-18 20:28:00,54.5,39.6,29.99,NNE,20,8.0,20.0,57,0.00,,,0.09,Wunderground v.1.15,2013-04-19 01:28:00,
2013-04-18 20:34:00,54.3,39.4,30.00,NNW,341,8.0,20.0,57,0.00,,,0.09,Wunderground v.1.15,2013-04-19 01:34:00,
2013-04-18 20:40:00,54.2,39.3,30.01,North,356,9.0,20.0,57,0.00,,,0.09,Wunderground v.1.15,2013-04-19 01:40:00,
2013-04-18 20:46:00,53.9,39.5,30.01,NNW,330,8.0,20.0,58,0.00,,,0.09,Wunderground v.1.15,2013-04-19 01:46:00,
2013-04-18 20:52:00,53.8,39.4,30.02,NNE,23,9.0,20.0,58,0.00,,,0.09,Wunderground v.1.15,2013-04-19 01:52:00,
2013-04-18 20:58:00,53.6,39.2,30.02,ENE,77,9.0,20.0,58,0.00,,,0.09,Wunderground v.1.15,2013-04-19 01:58:00,
2013-04-18 21:04:00,53.4,39.4,30.03,NNW,343,9.0,20.0,59,0.00,,,0.09,Wunderground v.1.15,2013-04-19 02:04:00,
2013-04-18 21:10:00,53.3,39.3,30.03,North,1,9.0,20.0,59,0.00,,,0.09,Wunderground v.1.15,2013-04-19 02:10:00,
2013-04-18 21:16:00,53.1,39.1,30.04,NNE,17,9.0,20.0,59,0.00,,,0.09,Wunderground v.1.15,2013-04-19 02:16:00,
2013-04-18 21:22:00,52.9,39.0,30.04,North,1,9.0,20.0,59,0.00,,,0.09,Wunderground v.1.15,2013-04-19 02:22:00,
2013-04-18 21:28:00,52.8,38.9,30.04,NNE,12,10.0,20.0,59,0.00,,,0.09,Wunderground v.1.15,2013-04-19 02:28:00,
2013-04-18 21:34:00,52.9,38.5,30.04,NNW,330,11.0,20.0,58,0.00,,,0.09,Wunderground v.1.15,2013-04-19 02:34:00,
2013-04-18 21:40:00,52.8,38.0,30.05,NNE,19,11.0,20.0,57,0.00,,,0.09,Wunderground v.1.15,2013-04-19 02:40:00,
2013-04-18 21:46:00,52.8,37.5,30.05,NNE,15,11.0,20.0,56,0.00,,,0.09,Wunderground v.1.15,2013-04-19 02:46:00,
2013-04-18 21:52:00,52.5,37.2,30.05,NNE,23,10.0,20.0,56,0.00,,,0.09,Wunderground v.1.15,2013-04-19 02:52:00,
2013-04-18 21:58:00,52.3,37.1,30.05,NNW,332,10.0,20.0,56,0.00,,,0.09,Wunderground v.1.15,2013-04-19 02:58:00,
2013-04-18 22:04:00,52.1,36.9,30.05,North,354,9.0,20.0,56,0.00,,,0.09,Wunderground v.1.15,2013-04-19 03:04:00,
2013-04-18 22:10:00,51.9,36.7,30.05,North,9,9.0,20.0,56,0.00,,,0.09,Wunderground v.1.15,2013-04-19 03:10:00,
2013-04-18 22:16:00,51.7,36.5,30.05,NNE,13,10.0,20.0,56,0.00,,,0.09,Wunderground v.1.15,2013-04-19 03:16:00,
2013-04-18 22:22:00,51.5,36.8,30.05,NNW,332,10.0,20.0,57,0.00,,,0.09,Wunderground v.1.15,2013-04-19 03:22:00,
2013-04-18 22:28:00,51.4,36.7,30.05,NNW,341,10.0,20.0,57,0.00,,,0.09,Wunderground v.1.15,2013-04-19 03:28:00,
2013-04-18 22:34:00,51.3,36.6,30.06,NNE,32,10.0,20.0,57,0.00,,,0.09,Wunderground v.1.15,2013-04-19 03:34:00,
2013-04-18 22:40:00,51.0,36.7,30.06,North,359,8.0,8.0,58,0.00,,,0.09,Wunderground v.1.15,2013-04-19 03:40:00,
2013-04-18 22:46:00,50.6,36.8,30.07,NNW,334,7.0,20.0,59,0.00,,,0.09,Wunderground v.1.15,2013-04-19 03:46:00,
2013-04-18 22:52:00,50.5,37.1,30.07,NNE,22,8.0,20.0,60,0.00,,,0.09,Wunderground v.1.15,2013-04-19 03:52:00,
2013-04-18 22:58:00,50.4,37.0,30.08,NNW,343,8.0,20.0,60,0.00,,,0.09,Wunderground v.1.15,2013-04-19 03:58:00,
2013-04-18 23:02:00,50.2,37.3,30.07,North,356,8.0,20.0,61,0.00,,,0.09,Wunderground v.1.15,2013-04-19 04:02:00,
2013-04-18 23:04:00,50.1,37.2,30.07,North,352,8.0,20.0,61,0.00,,,0.09,Wunderground v.1.15,2013-04-19 04:04:00,
2013-04-18 23:06:00,50.0,37.1,30.07,NNW,333,8.0,20.0,61,0.00,,,0.09,Wunderground v.1.15,2013-04-19 04:06:00,
2013-04-18 23:12:00,49.8,36.9,30.08,NNE,18,8.0,20.0,61,0.00,,,0.09,Wunderground v.1.15,2013-04-19 04:12:00,
2013-04-18 23:16:00,49.7,36.8,30.08,NNE,26,8.0,20.0,61,0.00,,,0.09,Wunderground v.1.15,2013-04-19 04:16:00,
2013-04-18 23:20:00,49.5,37.0,30.08,NNW,340,7.0,7.0,62,0.00,,,0.09,Wunderground v.1.15,2013-04-19 04:20:00,
2013-04-18 23:26:00,49.5,36.6,30.09,North,352,6.0,20.0,61,0.00,,,0.09,Wunderground v.1.15,2013-04-19 04:26:00,
2013-04-18 23:32:00,49.7,35.9,30.09,NNE,16,8.0,20.0,59,0.00,,,0.09,Wunderground v.1.15,2013-04-19 04:32:00,
2013-04-18 23:38:00,49.7,35.9,30.10,North,359,8.0,20.0,59,0.00,,,0.09,Wunderground v.1.15,2013-04-19 04:38:00,
2013-04-18 23:44:00,49.5,35.3,30.09,NNE,25,8.0,20.0,58,0.00,,,0.09,Wunderground v.1.15,2013-04-19 04:44:00,
2013-04-18 23:50:00,49.5,35.3,30.09,North,353,10.0,10.0,58,0.00,,,0.09,Wunderground v.1.15,2013-04-19 04:50:00,
2013-04-18 23:56:00,49.5,34.9,30.08,NNE,16,11.0,20.0,57,0.00,,,0.09,Wunderground v.1.15,2013-04-19 04:56:00,